Weather History for Quesnel, BC

Change the Weather History Date:

Friday, November 22, 2013

  Actual Average Record
Temperature  
Mean Temperature 26 °F -  
Max Temperature 28 °F 32 °F 44 °F (2011)
Min Temperature 23 °F 20 °F -11 °F (1996)
Degree Days  
Heating Degree Days 40    
Moisture  
Dew Point 20 °F    
Average Humidity 76    
Maximum Humidity 93    
Minimum Humidity 69    
Precipitation  
Precipitation 0.00 in - - ()
Sea Level Pressure  
Sea Level Pressure 30.68 in    
Wind  
Wind Speed 7 mph ()    
Max Wind Speed 10 mph    
Max Gust Speed -    
Visibility 9.0 miles    
Events      
Averages and records for this station are not official NWS values.
T = Trace of Precipitation, MM = Missing Value Source: Averaged Metar Reports

Daily Weather History Graph

Daily Weather History Graph

Search for Another Location

Airport:

Trip Planner

Search our weather history database for the weather conditions in past years. The results will help you decide how hot, cold, wet, or windy it might be!

Date:

Astronomy

Nov. 22, 2013 Rise Set
Actual Time 7:46 AM PST 4:05 PM PST
Civil Twilight 7:07 AM PST 4:44 PM PST
Nautical Twilight 6:24 AM PST 5:27 PM PST
Astronomical Twilight 5:42 AM PST 6:09 PM PST
Moon 8:54 PM PST (11/22) 11:23 AM PST (11/22)
Length of Visible Light 9h 37m
Length of Day
8h 18m
Waning Gibbous, 77% of the Moon is Illuminated
Nov 22
Waning Gibbous
Nov 25
Last Quarter
Dec 2
New
Dec 9
First Quarter
Dec 17
Full

Hourly Weather History & Observations

Time (PST) Temp. Windchill Dew Point Humidity Pressure Visibility Wind Dir Wind Speed Gust Speed Precip Events Conditions
12:00 AM 28.4 °F 21.2 °F 21.2 °F 74% 30.66 in 9.0 mi SE 6.9 mph - N/A   Overcast
1:00 AM 28.4 °F 19.7 °F 21.2 °F 74% 30.68 in 9.0 mi SE 9.2 mph - N/A   Overcast
2:00 AM 28.4 °F 20.4 °F 21.2 °F 74% 30.68 in 9.0 mi SSE 8.1 mph - N/A   Overcast
3:00 AM 28.4 °F 20.4 °F 21.2 °F 74% 30.70 in 9.0 mi SE 8.1 mph - N/A   Overcast
4:00 AM 28.4 °F 22.2 °F 21.2 °F 74% 30.71 in 9.0 mi SE 5.8 mph - N/A   Overcast
5:00 AM 26.6 °F 19.1 °F 21.2 °F 80% 30.72 in 9.0 mi SE 6.9 mph - N/A   Mostly Cloudy
6:00 AM 26.6 °F 17.5 °F 19.4 °F 74% 30.74 in 9.0 mi SE 9.2 mph - N/A   Clear
7:00 AM 24.8 °F 15.3 °F 19.4 °F 80% 30.74 in 9.0 mi SE 9.2 mph - N/A   Clear
8:00 AM 24.8 °F 14.6 °F 17.6 °F 74% 30.74 in 9.0 mi SSE 10.4 mph - N/A   Clear
9:00 AM 24.8 °F 15.3 °F 17.6 °F 74% 30.75 in 9.0 mi SSE 9.2 mph - N/A   Clear
10:00 AM 24.8 °F 15.3 °F 17.6 °F 74% 30.76 in 9.0 mi SE 9.2 mph - N/A   Clear
11:00 AM 24.8 °F 14.6 °F 17.6 °F 74% 30.74 in 9.0 mi SSE 10.4 mph - N/A   Clear
12:00 PM 26.6 °F 16.8 °F 17.6 °F 69% 30.72 in 9.0 mi SSE 10.4 mph - N/A   Clear
1:00 PM 28.4 °F 19.7 °F 19.4 °F 69% 30.71 in 9.0 mi SE 9.2 mph - N/A   Clear
2:00 PM 28.4 °F 19.1 °F 19.4 °F 69% 30.67 in 9.0 mi SSE 10.4 mph - N/A   Clear
3:00 PM 28.4 °F 19.1 °F 19.4 °F 69% 30.66 in 9.0 mi SSE 10.4 mph - N/A   Clear
4:00 PM 28.4 °F 19.7 °F 21.2 °F 74% 30.65 in 9.0 mi SSE 9.2 mph - N/A   Mostly Cloudy
5:00 PM 28.4 °F 21.2 °F 21.2 °F 74% 30.64 in 9.0 mi South 6.9 mph - N/A   Mostly Cloudy
6:00 PM 24.8 °F - 21.2 °F 86% 30.64 in 9.0 mi South 2.3 mph - N/A   Clear
7:00 PM 23.0 °F - 21.2 °F 93% 30.63 in 9.0 mi Calm Calm - N/A   Clear
8:00 PM 24.8 °F - 21.2 °F 86% 30.62 in 9.0 mi Variable 2.3 mph - N/A   Overcast
9:00 PM 24.8 °F 19.1 °F 21.2 °F 86% 30.59 in 9.0 mi South 4.6 mph - N/A   Scattered Clouds
10:00 PM 26.6 °F 19.1 °F 21.2 °F 80% 30.58 in 9.0 mi SSW 6.9 mph - N/A   Overcast
11:00 PM 26.6 °F 17.5 °F 21.2 °F 80% 30.57 in 9.0 mi SSE 9.2 mph - N/A   Overcast